User: anonymous
Location: Unspecified
(0.0000°N, 0.0000°E)
Time: 14:44:53
(UTC+00:00)
Language:

CLOUDSAT - Orbit

View from above orbital plane
View from above orbital plane
View from above satellite
View from above satellite

Ground track
Ground track

The orbit data is extracted from the following two-line orbital elements,

1 29107U 06016A   14112.84490680  .00002681  00000-0  60461-3 0  6196
2 29107 098.1943 057.5183 0001774 067.8808 292.2845 14.57131955424777
Epoch (UTC): 22 April 2014 20:16:39
Eccentricity: 0.0001774
inclination: 98.1943°
perigee height: 701 km
apogee height: 704 km
right ascension of ascending node: 57.5183°
argument of perigee: 67.8808°
revolutions per day: 14.57131955
mean anomaly at epoch: 292.2845°
orbit number at epoch: 42477

The dashed part of the orbit path shows where the satellite is in the earth's shadow,  

DLR